PAL2785 RPMR-RPVP

Flight info

Callsign PAL2785
Flight time N/A
Altitude 36000
Route SEBUL4R SEBUL W20 ZAM A583 MARAN W17 ZENNY DCT
Aircraft A321/M-SDE3FGHIRWY/LB1

Departure

Time 2026-04-30 05:46
Airport General Santos International Airport (RPMR)

Arrival

Time N/A
Airport Puerto Princesa International Airport / PAF Antonio Bautista Air Base (RPVP)
Time Latitude Longitude Altitude Speed Heading
2026-04-30 05:34 6.05856 125.09948 511 ft 0 kts 83°
2026-04-30 05:38 6.05856 125.09946 511 ft 2 kts 83°
2026-04-30 05:38 6.05854 125.09930 511 ft 2 kts 83°
2026-04-30 05:38 6.05852 125.09915 511 ft 2 kts 83°
2026-04-30 05:38 6.05851 125.09901 511 ft 2 kts 83°
2026-04-30 05:39 6.05849 125.09886 511 ft 2 kts 83°
2026-04-30 05:39 6.05851 125.09872 511 ft 2 kts 123°
2026-04-30 05:39 6.05863 125.09861 511 ft 2 kts 156°
2026-04-30 05:39 6.05876 125.09858 511 ft 2 kts 180°
2026-04-30 05:40 6.05885 125.09858 511 ft 0 kts 175°
2026-04-30 05:40 6.05885 125.09857 511 ft 0 kts 175°
2026-04-30 05:42 6.05884 125.09858 511 ft 1 kts 175°
2026-04-30 05:42 6.05863 125.09857 511 ft 3 kts 196°
2026-04-30 05:42 6.05843 125.09833 511 ft 7 kts 251°
2026-04-30 05:42 6.05832 125.09750 511 ft 15 kts 262°
2026-04-30 05:43 6.05825 125.09647 511 ft 14 kts 288°
2026-04-30 05:43 6.05906 125.09605 511 ft 13 kts 352°
2026-04-30 05:43 6.06004 125.09593 511 ft 16 kts 353°
2026-04-30 05:43 6.06142 125.09576 511 ft 23 kts 353°
2026-04-30 05:44 6.06320 125.09555 511 ft 28 kts 353°
2026-04-30 05:44 6.06527 125.09530 511 ft 30 kts 353°
2026-04-30 05:44 6.06728 125.09506 511 ft 27 kts 354°
2026-04-30 05:44 6.06910 125.09483 511 ft 25 kts 353°
2026-04-30 05:45 6.07075 125.09463 511 ft 22 kts 350°
2026-04-30 05:45 6.07214 125.09431 511 ft 14 kts 349°
2026-04-30 05:45 6.07243 125.09436 511 ft 2 kts 66°
2026-04-30 05:45 6.07230 125.09446 511 ft 4 kts 171°
2026-04-30 05:46 6.07106 125.09459 511 ft 51 kts 173°
2026-04-30 05:46 6.06461 125.09538 511 ft 132 kts 172°
2026-04-30 05:46 6.05351 125.09669 790 ft 172 kts 171°
2026-04-30 05:46 6.04161 125.09825 1572 ft 176 kts 170°
2026-04-30 05:47 6.02975 125.09986 2545 ft 170 kts 172°
2026-04-30 05:47 6.01840 125.10118 3252 ft 162 kts 173°
2026-04-30 05:47 6.00680 125.10252 3478 ft 174 kts 173°
2026-04-30 05:47 5.99415 125.10400 3745 ft 187 kts 173°
2026-04-30 05:48 5.98081 125.10559 4017 ft 201 kts 173°
2026-04-30 05:48 5.96619 125.10661 4288 ft 215 kts 186°
2026-04-30 05:48 5.95239 125.10202 4540 ft 229 kts 205°
2026-04-30 05:48 5.93714 125.09383 4767 ft 249 kts 209°
2026-04-30 05:49 5.92147 125.08478 5080 ft 266 kts 210°
2026-04-30 05:49 5.90550 125.07443 5564 ft 275 kts 218°
2026-04-30 05:49 5.89170 125.06172 6222 ft 277 kts 226°
2026-04-30 05:49 5.87870 125.04668 6906 ft 279 kts 231°
2026-04-30 05:50 5.86687 125.03086 7558 ft 281 kts 234°
2026-04-30 05:50 5.85562 125.01454 8203 ft 283 kts 236°
2026-04-30 05:50 5.84451 124.99780 8843 ft 285 kts 237°
2026-04-30 05:50 5.83447 124.98244 9411 ft 287 kts 237°
2026-04-30 05:51 5.82345 124.96546 10019 ft 289 kts 237°
2026-04-30 05:51 5.81236 124.94808 10451 ft 298 kts 242°
2026-04-30 05:51 5.80642 124.92775 10667 ft 311 kts 270°
2026-04-30 05:51 5.81151 124.90611 11021 ft 322 kts 296°
2026-04-30 05:52 5.82305 124.88656 11643 ft 323 kts 301°
2026-04-30 05:52 5.83482 124.86745 12235 ft 324 kts 300°
2026-04-30 05:52 5.84661 124.84769 12796 ft 326 kts 299°
2026-04-30 05:52 5.85813 124.82778 13329 ft 329 kts 298°
2026-04-30 05:53 5.86971 124.80737 13857 ft 332 kts 297°
2026-04-30 05:53 5.88113 124.78706 14366 ft 335 kts 297°
2026-04-30 05:53 5.89262 124.76653 14864 ft 339 kts 297°
2026-04-30 05:53 5.90513 124.74609 15348 ft 344 kts 305°
2026-04-30 05:54 5.92174 124.72831 15827 ft 351 kts 317°
2026-04-30 05:54 5.94221 124.71407 16315 ft 356 kts 326°
2026-04-30 05:54 5.96375 124.70148 16789 ft 360 kts 328°
2026-04-30 05:54 5.98593 124.68884 17256 ft 364 kts 328°
2026-04-30 05:55 6.00821 124.67613 17721 ft 367 kts 328°
2026-04-30 05:55 6.03049 124.66333 18179 ft 370 kts 328°
2026-04-30 05:55 6.05264 124.65054 18625 ft 374 kts 328°
2026-04-30 05:55 6.07574 124.63716 19082 ft 377 kts 328°
2026-04-30 05:56 6.09863 124.62389 19526 ft 380 kts 328°
2026-04-30 05:56 6.11796 124.61266 19891 ft 383 kts 328°
2026-04-30 05:56 6.13593 124.60222 20224 ft 385 kts 328°